Weather History for Chambery, France

Change the Weather History Date:

Friday, January 4, 2013

  Actual Average Record
Temperature  
Mean Temperature 34 °F -  
Max Temperature 41 °F 41 °F 51 °F (1998)
Min Temperature 26 °F 29 °F 21 °F (2002)
Degree Days  
Heating Degree Days 32    
Moisture  
Dew Point 31 °F    
Average Humidity 92    
Maximum Humidity 100    
Minimum Humidity 70    
Precipitation  
Precipitation 0.00 in - - ()
Sea Level Pressure  
Sea Level Pressure 30.66 in    
Wind  
Wind Speed 2 mph ()    
Max Wind Speed 7 mph    
Max Gust Speed -    
Visibility 3.4 miles    
Events Fog    
Averages and records for this station are not official NWS values.
T = Trace of Precipitation, MM = Missing Value Source: Averaged Metar Reports

Daily Weather History Graph

Daily Weather History Graph

Search for Another Location

Airport:

Trip Planner

Search our weather history database for the weather conditions in past years. The results will help you decide how hot, cold, wet, or windy it might be!

Date:

Astronomy

Jan. 04, 2013 Rise Set
Actual Time 8:17 AM CET 5:06 PM CET
Civil Twilight 7:43 AM CET 5:40 PM CET
Nautical Twilight 7:05 AM CET 6:17 PM CET
Astronomical Twilight 6:29 AM CET 6:53 PM CET
Moon No Moon Rise 11:28 AM CET (1/4)
Length of Visible Light 9h 57m
Length of Day
8h 49m
Waning Gibbous, 58% of the Moon is Illuminated
Jan 4
Waning Gibbous
Jan 5
Last Quarter
Jan 11
New
Jan 19
First Quarter
Jan 27
Full

Hourly Weather History & Observations

Time (CET) Temp. Windchill Dew Point Humidity Pressure Visibility Wind Dir Wind Speed Gust Speed Precip Events Conditions
12:00 AM 30.2 °F - 28.4 °F 93% 30.71 in - ESE 1.2 mph - N/A   Partly Cloudy
12:30 AM 30.2 °F - 28.4 °F 93% 30.71 in - Calm Calm - N/A   Mist
1:00 AM 28.4 °F - 28.4 °F 100% 30.71 in 2.2 mi Calm Calm - N/A   Mist
1:30 AM 26.6 °F - 24.8 °F 93% 30.71 in 0.3 mi South 1.2 mph - N/A Fog Fog
2:00 AM 26.6 °F 22.6 °F 26.6 °F 100% 30.71 in - South 3.5 mph - N/A   Partly Cloudy
2:30 AM 28.4 °F - 26.6 °F 93% 30.71 in 1.8 mi Calm Calm - N/A   Mist
3:00 AM 28.4 °F - 26.6 °F 93% 30.71 in 2.2 mi Calm Calm - N/A   Mist
3:30 AM 26.6 °F 22.6 °F 26.6 °F 100% 30.71 in - Variable 3.5 mph - N/A   Mist
4:00 AM 28.4 °F - 26.6 °F 93% 30.71 in 1.5 mi Calm Calm - N/A   Mist
4:30 AM 28.4 °F - 26.6 °F 93% 30.71 in - Calm Calm - N/A   Mist
5:00 AM 28.4 °F - 26.6 °F 93% 30.69 in - SSE 2.3 mph - N/A   Mist
5:30 AM 26.6 °F 22.6 °F 26.6 °F 100% 30.69 in - SSE 3.5 mph - N/A   Mist
6:00 AM 26.6 °F - 26.6 °F 100% 30.69 in 5.0 mi South 2.3 mph - N/A   Mostly Cloudy
6:30 AM 28.4 °F - 26.6 °F 93% 30.69 in 5.0 mi Calm Calm - N/A   Mostly Cloudy
7:00 AM 26.6 °F - 26.6 °F 100% 30.69 in 3.7 mi Calm Calm - N/A   Scattered Clouds
7:30 AM 26.6 °F - 26.6 °F 100% 30.69 in 3.7 mi East 2.3 mph - N/A   Partly Cloudy
8:00 AM 26.6 °F - 26.6 °F 100% 30.69 in 3.7 mi Calm Calm - N/A   Partly Cloudy
8:30 AM 28.4 °F 23.3 °F 26.6 °F 93% 30.69 in 3.7 mi SSW 4.6 mph - N/A   Partly Cloudy
9:00 AM 28.4 °F - 26.6 °F 93% 30.69 in 3.7 mi Calm Calm - N/A   Partly Cloudy
9:30 AM 28.4 °F - 28.4 °F 100% 30.69 in 3.7 mi ENE 1.2 mph - N/A   Partly Cloudy
10:00 AM 32.0 °F - 30.2 °F 93% 30.69 in 3.7 mi Variable 2.3 mph - N/A   Partly Cloudy
10:30 AM 35.6 °F - 33.8 °F 93% 30.69 in 3.7 mi Calm Calm - N/A   Partly Cloudy
11:00 AM 35.6 °F - 33.8 °F 93% 30.69 in 3.7 mi NNE 2.3 mph - N/A   Partly Cloudy
11:30 AM 37.4 °F 34.9 °F 33.8 °F 87% 30.69 in 3.7 mi SSW 3.5 mph - N/A   Partly Cloudy
12:00 PM 39.2 °F - 32.0 °F 75% 30.69 in 3.7 mi Variable 1.2 mph - N/A   Partly Cloudy
12:30 PM 41.0 °F - 32.0 °F 70% 30.69 in 4.3 mi Variable 2.3 mph - N/A   Partly Cloudy
1:00 PM 41.0 °F 39.0 °F 33.8 °F 76% 30.66 in 4.3 mi Variable 3.5 mph - N/A   Partly Cloudy
1:30 PM 41.0 °F 36.4 °F 35.6 °F 81% 30.66 in 5.0 mi North 6.9 mph - N/A   Partly Cloudy
2:00 PM 41.0 °F 36.4 °F 35.6 °F 81% 30.66 in 5.0 mi North 6.9 mph - N/A   Partly Cloudy
2:30 PM 41.0 °F 37.1 °F 35.6 °F 81% 30.63 in 5.0 mi North 5.8 mph - N/A   Partly Cloudy
3:00 PM 41.0 °F 39.0 °F 35.6 °F 81% 30.63 in 5.0 mi North 3.5 mph - N/A   Scattered Clouds
3:30 PM 39.2 °F 35.0 °F 35.6 °F 87% 30.63 in 5.0 mi NNW 5.8 mph - N/A   Partly Cloudy
4:00 PM 41.0 °F 37.1 °F 35.6 °F 81% 30.63 in 5.0 mi North 5.8 mph - N/A   Partly Cloudy
4:30 PM 39.2 °F - 35.6 °F 87% 30.60 in 5.0 mi Variable 2.3 mph - N/A   Mostly Cloudy
5:00 PM 39.2 °F - 35.6 °F 87% 30.63 in 5.0 mi West 1.2 mph - N/A   Mostly Cloudy
5:30 PM 35.6 °F - 33.8 °F 93% 30.63 in 5.0 mi South 2.3 mph - N/A   Scattered Clouds
6:00 PM 35.6 °F 31.7 °F 33.8 °F 93% 30.60 in 5.0 mi SSW 4.6 mph - N/A   Mostly Cloudy
6:30 PM 35.6 °F - 33.8 °F 93% 30.60 in 3.1 mi Calm Calm - N/A   Mist
7:00 PM 33.8 °F - 32.0 °F 93% 30.60 in 3.1 mi Calm Calm - N/A   Mist
7:30 PM 33.8 °F - 32.0 °F 93% 30.60 in - Calm Calm - N/A   Mist
8:00 PM 32.0 °F - 30.2 °F 93% 30.63 in 1.4 mi Calm Calm - N/A   Partly Cloudy
8:30 PM 32.0 °F - 32.0 °F 100% 30.63 in 1.1 mi South 2.3 mph - N/A   Scattered Clouds
9:00 PM 30.2 °F 26.7 °F 30.2 °F 100% 30.60 in 1.2 mi South 3.5 mph - N/A Fog Patches of Fog
9:30 PM 32.0 °F - 30.2 °F 93% 30.63 in 1.7 mi Calm Calm - N/A   Mostly Cloudy
10:00 PM 33.8 °F - 32.0 °F 93% 30.60 in 1.4 mi South 2.3 mph - N/A   Overcast
10:30 PM 33.8 °F - 32.0 °F 93% 30.60 in 1.2 mi South 2.3 mph - N/A   Overcast
11:00 PM 33.8 °F - 33.8 °F 100% 30.60 in 1.7 mi Calm Calm - N/A   Overcast
11:30 PM 35.6 °F - 33.8 °F 93% 30.60 in - Calm Calm - N/A   Overcast